This demonstration page uses our WeatherBlox Daily Observations layout. Learn more.

41.55636, -103.73856

Hourly Observations for July 28, 2019

Temp ( °F °C ) Dew Point ( °F °C ) Humidity (%) Winds ( mph kmh ) Pressure ( in mb ) Visibility ( mi km ) Precip ( " mm )
12:58 am 00:58 Clear 73 22.5 60 15.3 64 64 Calm 29.96 1014 10 16.0934 0 0
1:58 am 01:58 Mostly Cloudy 68 19.9 62 16.5 81 81 ENE 6 9 29.97 1015 10 16.0934 0 0
2:58 am 02:58 Mostly Cloudy 64 18 60 15.8 87 87 ESE 5 7 30 1016 10 16.0934 0 0
3:58 am 03:58 Mostly Cloudy 64 17.8 61 15.9 89 89 SSE 8 13 30.03 1017 10 16.0934 0 0
4:58 am 04:58 Mostly Cloudy 64 17.8 60 15.6 87 87 SSW 9 15 29.99 1016 10 16.0934 0 0
5:58 am 05:58 Mostly Cloudy 63 17 60 15.4 90 90 W 6 9 29.97 1015 10 16.0934 0 0
6:58 am 06:58 Mostly Cloudy 64 17.5 59 14.9 85 85 W 7 11 29.94 1014 10 16.0934 0 0
7:58 am 07:58 Partly Cloudy 63 17.3 56 13.2 77 77 W 7 11 29.93 1014 10 16.0934 0 0
8:58 am 08:58 Partly Cloudy 62 16.5 56 13.3 82 82 WNW 12 19 29.92 1013 10 16.0934 0 0
9:58 am 09:58 Clear 60 15.6 56 13.4 87 87 WNW 9 15 29.92 1013 10 16.0934 0 0
10:58 am 10:58 Clear 60 15.7 56 13.5 87 87 WNW 12 19 29.95 1014 10 16.0934 0 0
11:58 am 11:58 Sunny 60 15.6 55 12.9 84 84 W 10 17 29.98 1015 10 16.0934 0 0
12:58 pm 12:58 Sunny 63 17 56 13.5 80 80 W 8 13 29.97 1015 10 16.0934 0 0
1:58 pm 13:58 Sunny 68 19.8 56 13.5 67 67 WNW 13 20 29.99 1016 10 16.0934 0 0
2:58 pm 14:58 Sunny 72 22.4 55 13 55 55 NW 16 26 30 1016 10 16.0934 0 0
3:58 pm 15:58 Sunny 76 24.2 53 11.5 45 45 NNW 16 26 30.01 1016 10 16.0934 0 0
4:58 pm 16:58 Sunny 77 24.8 53 11.4 43 43 NNW 15 24 30.02 1017 10 16.0934 0 0
5:58 pm 17:58 Sunny 79 26.3 50 9.8 35 35 NNW 17 28 30.01 1016 10 16.0934 0 0
6:58 pm 18:58 Mostly Sunny 80 26.8 48 8.7 32 32 N 17 28 30.02 1017 10 16.0934 0 0
7:58 pm 19:58 Sunny 81 27.2 47 8.3 30 30 N 9 15 30.02 1017 10 16.0934 0 0
8:58 pm 20:58 Sunny 82 28 44 6.8 26 26 NW 13 20 30.01 1016 10 16.0934 0 0
9:58 pm 21:58 Sunny 83 28.5 45 7.3 26 26 N 12 19 30.01 1016 10 16.0934 0 0
10:58 pm 22:58 Sunny 83 28.4 45 7.2 26 26 NNE 12 19 30 1016 10 16.0934 0 0
11:58 pm 23:58 Sunny 82 27.5 45 7 27 27 NNE 7 11 29.99 1016 10 16.0934 0 0

Powered by AerisWeather